CZ-4C R/B, 43012

Orbit data source: Space-Track

CZ-4C R/B, 43012 is space debris in SSO originally from a launch on Tue, 14 Nov 2017 UTC via a CHANG ZHENG 4C launch vehicle from the Taiyaun Space Center, China (TSC). Debris objects in space refer to the collection of defunct objects orbiting the Earth. Examples of debris include non-operational satellites, rocket bodies, and fragments generated from explosions, collisions, or faulty payload assembly.

Loading next visibility...
Identifier
43012, 2017-072C
Orbit
SSO
Country
Flag of CNCN / PRC
Related business
Flag of CNFudan University (CN)
Manufacturer
Fudan Univ
Mission
Spacecraft
Bus & Motor
XINYUN, Unknown motor
Mass
1,001 kg wet, 1 kg dry
Launch date (UTC)
2017-11-14 (8 years ago)
Launch vehicle
CHANG ZHENG 4C
Launch site
Taiyaun Space Center, China (TSC)
Object type
Payload
Rocket body
Debris
Shape & HBR
Cyl, 1.4 m
Radar Cross Section
20.385 m², Large (>1 m²)

Expand to show TLE details & history
Last TLE update: 17 hours ago

TLE from 17 hours ago
0 CZ-4C R/B
1 43012U 17072C   25260.01970031  .00000358  00000-0  81139-4 0  9995
2 43012  98.5743 354.3128 0122016 273.2310  85.4935 14.58387509416818
Epoch: 2025-09-17T00:28Z
TLE epoch observation values (Epoch: 2025-09-17T00:28:22.106Z)
Latitude
-0.00002°
Longitude
-8.98096°
Altitude
695.62 km
Speed
7.511 km/s
True Right ascension
23h 37m 15s
True Declination
0° 00' 00"
Sunlit
Object was in full shadow at epoch
Visualization orbit readout
Latitude
Unknown
Longitude
Unknown
Altitude
Unknown
Speed
Unknown
Apparent Right ascension
Unknown
Apparent Declination
Unknown
Sunlit
N/A
Visualization observer readout
Local Sidereal Time
10:05:27
Azimuth
Unknown
Elevation
Unknown
Doppler factor
Unknown
Orbital elements
Apogee altitude
781.795 km
Perigee altitude
609.176 km
Semi-major axis
7,073.623 km
Eccentricity
0.0122
Inclination
98.5743°
RAAN
354.3128°
Arg. of periapsis
273.231°
True anomaly
86.88891°
Mean anomaly
85.4935°
Eccentric anomaly
86.19106°
Mean motion
3.64821 °/min
Orbital period
98.68 mins
BSTAR
0.000081139
Loading maneuver chart data...
Computing Atmospheric mass density...
Loading historical data...
Loading historical data...
Loading historical data...
Loading historical data...
Loading historical data...
Loading historical data...
Loading historical data...
Other satellites on launch #72 in the year 2017 (2017-11-14 UTC)

Documentation

Showing up to 5 results
|